Content
SEND FEEDBACK

Daily
Averages
Monthly
Summary
Malaysia

KUCHING, MALAYSIA


Home > Asia > Malaysia
Elevation: 89 feet     Latitude: 01 29N     Longitude: 110 20E

WEATHER
 
SELECT A DAY
Number of Records: 270,510;   Date Range: 8/9/96 - 8/31/14
 
SHARE

PRINT THIS DATA

[ ← Previous Day ]
WEATHER ALMANAC - APRIL 7, 2013
[ Next Day → ]
[ °C ]   °F
Weather ElementAverageHighLow
Temperature78.5 °F89.6 °F (1:30 pm)75 °F (5:00 am)
Dewpoint75.3 °F78.8 °F (2:30 pm)73.4 °F (4:30 am)
Humidity90.1 %100 % (12:30 am)61 % (2:00 pm)
Barometer29.75 in29.84 in (11:00 pm)29.68 in (2:30 pm)
Wind Speed4.1 mph11.5 mph (3:00 pm)
Weather ElementAverage
Visibility5.3 mi
Wind DirectionSSE (169.5 °)

Weather ElementTotal
Precipitation---
Cooling Degree Days17.3 (Base 65)
Growing Degree Days32.3 (Base 50)
Averaged from 55 records on April 7, 2013
WEATHER CONDITIONS BREAKOUT
WIND DIRECTION BREAKOUT
WEATHER BY HOUR - APRIL 7, 2013
[ °C ]   °F
Local TimeTemperatureDewpointHumidityBarometerVisibilityWind DirectionWind SpeedGust SpeedPrecipitationEventsConditions
12:30 AM75.2 °F75.2 °F100 %29.74 in6.2 miESE (120°)1.2 mphMostly Cloudy
1:00 AM75.2 °F75.2 °F100 %29.74 in6.2 miEast (90°)2.3 mphMostly Cloudy
1:30 AM75.2 °F75.2 °F100 %29.74 in6.2 miCalmMostly Cloudy
2:00 AM76.0 °F74.0 °F93 %29.74 in9.0 miSE (130°)1.2 mphPartly Cloudy
2:00 AM75.2 °F75.2 °F100 %29.74 in6.2 miSE (130°)1.2 mphMostly Cloudy
2:30 AM75.2 °F75.2 °F100 %29.71 in6.2 miSW (220°)1.2 mphMostly Cloudy
3:00 AM75.2 °F75.2 °F100 %29.71 in6.2 miSSE (160°)2.3 mphMostly Cloudy
3:30 AM75.2 °F75.2 °F100 %29.71 in6.2 miSSW (210°)3.5 mphMostly Cloudy
4:00 AM75.2 °F75.2 °F100 %29.71 in6.2 miSSW (210°)3.5 mphMostly Cloudy
4:30 AM75.2 °F73.4 °F94 %29.71 in6.2 miSouth (190°)3.5 mphMostly Cloudy
5:00 AM75.0 °F74.0 °F95 %29.72 in5.0 miSSW (210°)2.3 mphMist
5:00 AM75.2 °F73.4 °F94 %29.71 in5.0 miSSW (210°)2.3 mphMostly Cloudy
5:30 AM75.2 °F73.4 °F94 %29.71 in5.0 miSouth (190°)1.2 mphMostly Cloudy
6:00 AM75.2 °F73.4 °F94 %29.71 in5.0 miCalmMostly Cloudy
6:30 AM75.2 °F73.4 °F94 %29.71 in3.1 miEast (80°)1.2 mphMostly Cloudy
7:00 AM75.2 °F73.4 °F94 %29.71 in3.1 miENE (70°)1.2 mphMostly Cloudy
7:30 AM75.2 °F75.2 °F100 %29.74 in4.3 miNE (50°)2.3 mphMostly Cloudy
8:00 AM76.0 °F74.0 °F94 %29.76 in6.0 miSSE (160°)3.5 mphScattered Clouds
8:00 AM77.0 °F75.2 °F94 %29.74 in6.2 miSSE (160°)3.5 mphMostly Cloudy
8:30 AM77.0 °F75.2 °F94 %29.77 in6.2 miEast (100°)2.3 mphMostly Cloudy
9:00 AM78.8 °F75.2 °F89 %29.77 in6.2 miESE (120°)4.6 mphMostly Cloudy
9:30 AM78.8 °F75.2 °F89 %29.77 in6.2 miSE (140°)5.8 mphMostly Cloudy
10:00 AM78.8 °F75.2 °F89 %29.80 in6.2 miSE (130°)3.5 mphMostly Cloudy
10:30 AM80.6 °F75.2 °F84 %29.80 in6.2 miSE (130°)3.5 mphMostly Cloudy
11:00 AM82.0 °F75.0 °F75 %29.80 in11.0 miSouth (170°)4.6 mphMostly Cloudy
11:00 AM82.4 °F75.2 °F79 %29.80 in6.2 miSouth (170°)4.6 mphMostly Cloudy
11:30 AM84.2 °F77.0 °F79 %29.77 in6.2 miSSE (150°)5.8 mphMostly Cloudy
12:00 PM84.2 °F77.0 °F79 %29.77 in6.2 miSE (140°)5.8 mphMostly Cloudy
12:30 PM86.0 °F77.0 °F74 %29.77 in6.2 miSouth (170°)3.5 mphMostly Cloudy
1:00 PM87.8 °F75.2 °F66 %29.74 in6.2 miSouth (190°)1.2 mphMostly Cloudy
1:30 PM89.6 °F77.0 °F66 %29.71 in6.2 miESE (110°)4.6 mphMostly Cloudy
2:00 PM88.0 °F76.0 °F61 %29.71 in9.0 miEast (90°)6.9 mphPartly Cloudy
2:00 PM87.8 °F77.0 °F70 %29.71 in6.2 miEast (90°)6.9 mphMostly Cloudy
2:30 PM86.0 °F78.8 °F79 %29.68 in6.2 miEast (80°)9.2 mphRainLight Rain Showers
3:00 PM80.6 °F77.0 °F89 %29.68 in0.9 miWNW (300°)11.5 mphRainHeavy Rain Showers
3:30 PM80.6 °F75.2 °F84 %29.68 in1.6 miSW (230°)8.1 mphRain-ThunderstormLight Thunderstorms and Rain
4:00 PM77.0 °F73.4 °F89 %29.68 in1.9 miSouth (180°)5.8 mphRain-ThunderstormLight Thunderstorms and Rain
4:30 PM78.8 °F75.2 °F89 %29.68 in3.7 miWNW (290°)4.6 mphRain-ThunderstormLight Thunderstorms and Rain
5:00 PM79.0 °F76.0 °F89 %29.69 in5.0 miSSW (210°)6.9 mphRainLight Rain
5:00 PM78.8 °F77.0 °F94 %29.68 in5.0 miSSW (210°)6.9 mphRainLight Rain
5:30 PM78.8 °F77.0 °F94 %29.68 in5.0 miWest (270°)4.6 mphRainLight Rain
6:00 PM80.6 °F77.0 °F89 %29.71 in6.2 miSW (230°)3.5 mphMostly Cloudy
6:30 PM78.8 °F77.0 °F94 %29.74 in5.6 miWSW (250°)5.8 mphRainLight Rain
7:00 PM78.8 °F75.2 °F89 %29.74 in6.2 miWSW (250°)9.2 mphRainLight Rain
7:30 PM77.0 °F75.2 °F94 %29.77 in2.5 miWSW (250°)5.8 mphRainRain
8:00 PM77.0 °F75.0 °F92 %29.79 in2.0 miWSW (240°)5.8 mphRainRain
8:00 PM77.0 °F75.2 °F94 %29.77 in2.5 miWSW (240°)5.8 mphRainRain
8:30 PM77.0 °F75.2 °F94 %29.80 in2.5 miSSW (200°)4.6 mphRainRain
9:00 PM77.0 °F75.2 °F94 %29.80 in3.1 miSSW (210°)5.8 mphRainRain
9:30 PM77.0 °F75.2 °F94 %29.80 in3.1 miSW (220°)5.8 mphRainRain
10:00 PM77.0 °F75.2 °F94 %29.83 in4.3 miSSW (200°)3.5 mphRainRain
10:30 PM75.2 °F75.2 °F100 %29.83 in5.0 miSouth (190°)2.3 mphRainLight Rain
11:00 PM76.0 °F74.0 °F93 %29.84 in5.0 miSouth (190°)3.5 mphRainLight Rain
11:00 PM75.2 °F75.2 °F100 %29.83 in5.0 miSouth (190°)3.5 mphRainLight Rain
11:30 PM75.2 °F73.4 °F94 %29.83 in6.2 miSSW (200°)2.3 mphRainLight Rain
Hourly data recorded from WBGG, located miles away from Kuching, Malaysia







STORIES FROM OUR PARTNERS